Regional Weather Roundup
Issued by NWS

Home | Current Version | Previous Version | Graphics & Text | Print | Product List | Glossary On
Versions: 1 2 3 4 5 6 7 8 9 10 11 12 13 14 15 16 17 18 19 20 21 22 23 24 25 26 27 28 29 30 31 32 33 34 35 36 37 38 39 40 41 42 43 44 45 46 47 48 49 50
399
ASUS43 KOAX 280802
RWRNE

WEATHER ROUNDUP FOR NEBRASKA
NATIONAL WEATHER SERVICE OMAHA NE
300 AM CDT TUE MAR 28 2017

NOTES: SATELLITE DATA IS BEING USED TO AUGMENT CLOUD COVER ABOVE
       12000 FEET.
       "FAIR" INDICATES FEW OR NO CLOUDS BELOW 12,000 FEET WITH NO
       SIGNIFICANT WEATHER AND/OR OBSTRUCTIONS TO VISIBILITY.

  * THESE STATIONS DO NOT REPORT WEATHER SUCH AS RAIN...SNOW OR FOG.

NEZ001>004-019>022-054>056-280900-
NEBRASKA PANHANDLE

CITY           SKY/WX    TMP DP  RH WIND       PRES   REMARKS
SCOTTSBLUFF    LGT RAIN  48  45  89 S6        29.90R
ALLIANCE       LGT RAIN  45  43  93 S7        29.90S
CHADRON        CLOUDY    44  40  85 SW8       29.91R
KIMBALL        CLOUDY    46  45  99 E12       29.86F
SIDNEY         LGT RAIN  46  42  86 E8        29.90S
$$

NEZ057>060-069>072-079>082-280900-
SOUTHWEST NEBRASKA

CITY           SKY/WX    TMP DP  RH WIND       PRES   REMARKS
NORTH PLATTE   PTCLDY    42  39  89 SE6       29.94S
IMPERIAL       CLOUDY    46  41  82 SE12      29.91F
LEXINGTON      CLOUDY    41  39  93 SE6       29.97F FOG
MCCOOK         CLOUDY    45  43  93 SE7       29.95R
OGALLALA       CLOUDY    47  41  77 E8        29.91F
$$

NEZ005>010-023>029-035>040-094-280900-
NORTH CENTRAL NEBRASKA

CITY           SKY/WX    TMP DP  RH WIND       PRES   REMARKS
VALENTINE      CLOUDY    46  40  79 E7        29.97R
AINSWORTH      CLOUDY    44  42  94 S6        29.98S
BROKEN BOW     MOCLDY    42  39  89 S7        29.98R
O`NEILL        CLOUDY    45  42  90 SE6       30.01S
ORD            CLEAR     38  36  92 CALM      30.00R FOG
THEDFORD       CLOUDY    43  41  93 SE5       29.96S
$$

NEZ041-046>049-061>064-073>077-083>087-280900-
SOUTH CENTRAL NEBRASKA

CITY           SKY/WX    TMP DP  RH WIND       PRES   REMARKS
GRAND ISLAND   FOG       35  35 100 E6        30.01F VSB 1   WCI  30
AURORA         CLEAR     34  34 100 E6        30.01F FOG     WCI  29
HASTINGS       MOCLDY    37  35  92 E3        30.00F FOG
HEBRON         PTCLDY    38  37  95 CALM      30.02S FOG
HOLDREGE       CLOUDY    39  38  97 SE7       29.97F FOG     WCI  34
KEARNEY *      PTCLDY    37  36  93 SE3       29.99F
YORK           CLEAR     36  36 100 CALM      30.03S FOG
$$

NEZ011>018-030>034-042>045-280900-
NORTHEAST NEBRASKA

CITY           SKY/WX    TMP DP  RH WIND       PRES   REMARKS
NORFOLK        PTCLDY    36  34  92 SE6       30.03S WCI  31
ALBION         CLOUDY    41  38  89 SE6       30.02F
FREMONT        CLOUDY    38  38 100 CALM      30.05S
TEKAMAH        CLOUDY    35  33  92 N6        30.05S WCI  30
WAYNE          CLOUDY    32  32  99 CALM      30.05S
$$

NEZ050>053-065>068-078-088>093-280900-
SOUTHEAST NEBRASKA

CITY           SKY/WX    TMP DP  RH WIND       PRES   REMARKS
LINCOLN        CLOUDY    33  32  96 N6        30.05S FOG     WCI  28
OMAHA EPPLEY   MOCLDY    35  32  88 NW7       30.05R WCI  29
BEATRICE       FOG       36  35  99 NE6       30.03S VSB 1   WCI  31
FALLS CITY     CLOUDY    47  42  83 CALM      30.02F
NEBRASKA CITY  CLOUDY    46  40  82 CALM      30.03F
PLATTSMOUTH    CLEAR     44  37  77 CALM      30.04S
$$

NEZ044-045-051>053-067-280900-
OMAHA AREA

CITY           SKY/WX    TMP DP  RH WIND       PRES   REMARKS
OMAHA EPPLEY   MOCLDY    35  32  88 NW7       30.05R WCI  29
FREMONT        CLOUDY    38  38 100 CALM      30.05S
MILLARD        MOCLDY    44  41  89 CALM      30.05R
OFFUTT AFB     CLEAR     34  33  96 W5        30.04S WCI  30
PLATTSMOUTH    CLEAR     44  37  77 CALM      30.04S
WAHOO          CLOUDY    38  37  96 NE3       30.05S
$$




USA.gov is the U.S. government's official web portal to all federal, state and local government web resources and services.